Wetbulb
49.54 43.88 39.88 43.83 46.98 46.50 45.00 43.74 42.42 44.15 46.12 44.81 45.52 46.47 47.42 49.35 49.00 47.78 48.04 48.78 50.01 51.68 54.10 53.96 55.45 56.78 56.76 57.09 56.67 56.69 57.18 58.28 60.16 60.66 60.76 60.80 60.90 62.16 62.96 63.84 64.71 63.75 62.82 61.48
45.34 40.97 45.39 47.74 47.32 45.09 45.26 42.49 41.71 44.53 45.81 43.71 44.72 44.18 46.26 47.29 47.64 47.50 47.67 47.88 48.81 50.02 50.16 51.62 51.76 53.79 53.89 53.71 53.88 54.65 55.09 54.99 55.11 55.94 56.95 58.33 57.58 58.46 57.80 59.55 59.25 58.80 58.64 58.35
42.22 43.51 47.67 46.74 45.09 42.93 43.39 42.52 42.02 41.44 43.37 43.85 42.00 40.01 42.58 46.64 48.02 47.98 48.62 48.78 49.10 47.95 48.17 48.83 48.34 48.45 49.77 50.31 50.73 52.55 53.37 53.97 54.26 55.25 55.63 55.28 54.78 54.18 54.33 54.99 55.33 56.41 57.73 58.05
43.11 44.31 44.10 44.26 43.74 44.39 39.44 44.88 44.28 42.79 39.72 35.19 42.52 33.20 41.32 45.52 43.34 44.99 45.82 46.60 47.09 45.87 46.79 47.68 47.24 47.21 47.64 48.59 50.03 50.93 52.62 52.85 52.62 52.65 51.99 52.07 52.23 52.15 53.76 54.57 55.51 55.93 56.69 55.94
39.70 40.60 41.06 40.76 42.87 45.04 41.53 45.95 44.07 43.41 40.40 37.61 36.71 32.51 37.24 41.62 39.90 42.56 45.17 44.11 44.40 45.80 46.31 45.93 46.27 47.29 46.70 48.05 47.95 49.60 50.61 50.36 49.59 49.59 49.43 49.09 49.80 51.27 52.44 53.02 53.88 54.24 54.81 55.16
41.27 44.46 43.39 42.27 44.18 45.27 45.50 42.66 42.11 41.87 39.75 32.00 36.11 34.21 33.78 37.86 41.58 41.64 41.60 43.51 44.57 44.75 45.06 45.84 47.15 47.53 47.01 47.38 47.20 47.53 48.15 48.43 48.21 47.98 48.28 47.98 47.98 49.21 49.72 51.12 51.89 52.90 53.33 53.48
39.49 40.52 42.25 44.94 41.10 43.78 42.89 37.35 29.80 25.91 25.09 26.18 35.16 34.49 37.09 39.50 40.44 40.86 41.93 42.93 44.08 44.32 44.85 45.29 45.48 45.61 45.64 45.54 45.94 45.21 46.37 46.51 46.38 45.91 46.01 46.42 46.32 46.39 46.86 47.87 49.17 50.17 51.48 51.98
32.79 29.74 39.24 43.07 40.77 38.77 39.12 36.96 30.56 24.13 24.20 25.33 31.62 25.86 33.16 40.01 42.30 42.52 43.49 43.76 43.75 44.30 45.20 44.76 45.07 45.34 45.43 45.87 45.41 45.52 45.16 44.98 45.07 44.70 44.32 44.40 44.68 43.82 44.06 44.79 45.60 46.71 47.77 48.98
32.15 32.22 40.88 42.84 42.60 42.24 38.26 34.55 38.00 30.11 25.03 24.56 28.48 32.74 38.02 40.64 40.64 41.34 41.62 42.70 41.97 43.91 44.70 44.91 45.40 45.40 45.37 45.10 45.19 45.12 44.72 44.57 44.36 44.08 43.69 43.08 42.78 42.43 42.18 42.66 43.20 43.58 44.84 46.42
37.25 30.05 39.15 40.46 42.38 42.08 39.29 40.69 30.58 30.85 19.61 17.67 25.06 27.28 30.90 36.22 38.03 40.54 40.13 40.03 42.12 43.72 44.22 44.50 44.56 45.00 45.45 45.37 45.13 45.09 45.08 44.33 44.19 43.78 43.22 42.99 42.04 41.78 41.38 41.17 40.72 41.26 41.95 42.91
39.53 35.18 34.45 38.94 36.21 36.01 36.61 34.75 35.99 35.11 31.37 25.12 22.45 26.02 34.14 36.22 38.40 39.04 40.09 42.47 42.12 43.04 43.77 44.09 44.19 44.78 45.47 45.33 44.85 44.41 44.28 43.97 43.57 43.62 43.17 42.33 41.98 41.92 41.34 40.38 39.97 39.99 40.39 40.58
39.38 35.84 31.18 34.04 38.09 39.80 39.38 37.14 36.62 27.51 24.82 27.52 28.30 28.15 38.23 38.00 38.67 40.66 40.75 41.84 42.12 43.72 44.34 44.44 44.50 44.49 44.63 44.00 43.66 43.25 42.95 42.49 42.17 42.07 41.48 41.05 41.02 40.60 39.74 39.51 39.41 39.40 38.70 39.07
39.01 34.50 28.64 30.30 34.08 37.45 35.40 37.22 37.71 36.50 31.28 26.10 23.22 27.08 39.21 38.13 38.67 39.28 39.66 40.50 41.11 40.84 41.65 43.92 44.13 43.98 43.11 42.23 42.01 41.44 41.17 40.47 40.52 40.17 39.68 39.33 39.00 38.83 38.75 39.03 38.90 38.66 37.75 37.15
42.12 36.46 32.27 27.79 29.81 34.44 32.31 35.36 37.03 35.44 25.99 27.43 28.63 30.35 34.95 36.05 37.43 38.54 38.75 39.96 40.44 42.35 43.91 43.27 43.24 43.34 42.27 41.15 41.02 40.10 39.60 39.21 38.41 38.53 38.16 37.14 36.97 37.22 37.05 37.15 36.75 36.47 36.39 35.54
38.48 31.46 32.08 33.66 33.83 33.80 33.81 34.44 35.35 33.70 33.86 27.37 31.75 31.12 36.91 38.74 39.37 40.70 41.87 42.71 42.67 42.89 43.22 43.15 42.13 40.92 39.50 38.69 37.75 37.94 37.05 36.96 36.67 36.58 36.47 36.28 35.74 35.73 34.71 33.87 34.00 34.09 33.32 34.01
37.48 27.57 31.37 27.01 33.24 32.16 29.02 33.18 33.94 34.14 34.38 33.98 35.20 34.40 40.12 41.80 42.04 41.01 42.29 42.57 42.02 41.81 42.58 41.86 40.78 39.75 37.82 36.94 36.03 36.59 35.19 35.13 35.59 35.14 34.54 34.59 33.15 32.03 31.57 31.67 31.31 31.02 30.87 31.39
34.91 30.59 24.43 20.06 28.10 27.71 17.37 29.01 32.18 33.75 35.58 34.75 30.71 36.01 40.03 38.74 40.31 40.53 40.96 41.99 41.88 42.19 40.65 39.32 38.18 37.36 36.29 34.76 34.83 32.37 32.74 33.35 32.97 31.70 31.54 30.11 29.55 29.26 29.53 29.62 29.47 29.54 29.23 29.51
33.05 29.49 26.30 14.60 16.25 8.48 27.45 32.13 33.66 33.16 35.02 36.11 36.78 38.14 39.31 39.92 40.38 40.06 40.41 40.49 40.02 38.87 38.43 37.00 35.35 34.08 33.44 32.59 31.17 31.16 30.87 31.32 29.70 29.52 28.08 27.87 27.64 27.51 27.88 27.82 28.02 28.27 28.65 28.38
34.24 29.66 16.90 13.97 11.89 22.01 25.33 29.72 30.39 31.11 30.77 35.77 35.58 37.37 38.68 39.59 39.98 34.39 36.24 36.70 36.23 35.89 35.56 34.03 32.58 31.89 30.94 29.25 28.41 27.06 27.35 27.69 27.89 26.40 25.82 25.95 26.07 25.95 26.09 25.80 26.05 26.79 27.26 27.50
31.68 30.67 21.31 12.76 8.06 6.59 25.97 32.92 36.34 35.50 22.79 33.70 35.87 36.00 37.07 37.79 32.37 29.63 34.51 35.41 34.65 33.50 32.33 30.80 29.46 29.44 28.05 26.26 25.39 25.43 26.04 25.75 23.80 23.63 23.76 23.89 24.17 24.11 23.46 24.37 24.92 26.03 26.27 27.19
15.01 16.41 12.10 12.19 8.54 18.73 29.96 31.16 36.33 19.16 23.67 32.08 33.59 35.29 34.70 32.63 31.63 32.65 33.80 32.34 31.16 29.79 28.31 28.22 26.95 26.65 24.64 24.09 23.81 23.60 23.27 21.69 21.70 21.67 21.12 20.81 21.58 21.77 22.90 23.33 23.85 24.10 24.62 25.53
17.10 13.05 9.61 12.25 8.12 9.99 32.10 30.08 29.33 32.07 32.08 31.98 31.06 31.22 32.36 32.18 32.59 32.18 32.29 30.16 28.83 26.68 26.37 26.00 24.02 23.77 22.87 22.69 21.69 20.86 20.39 19.63 18.47 17.41 16.49 17.13 17.88 20.18 22.37 20.33 21.22 21.65 21.99 22.82
18.23 24.90 20.44 22.36 21.41 30.27 31.51 30.83 33.04 33.71 33.11 31.87 30.59 31.27 32.55 31.20 30.46 30.82 30.35 29.35 27.33 25.96 24.76 23.90 21.79 21.61 21.92 20.41 19.76 18.11 17.34 16.44 14.35 11.18 11.58 13.81 16.51 19.36 20.33 19.43 19.70 19.71 19.65 19.68
26.43 29.83 24.97 26.81 28.63 30.20 32.20 33.95 33.49 32.77 31.66 31.76 30.48 30.57 29.55 29.19 29.87 28.89 28.42 27.23 25.93 25.05 23.29 21.13 19.10 18.48 17.96 17.68 18.13 16.30 15.18 13.21 6.74 7.96 11.19 14.37 16.59 16.97 18.02 19.89 20.50 18.50 17.93 18.51
26.02 27.87 26.17 26.25 29.09 29.69 31.02 32.52 33.48 33.12 31.45 30.00 29.51 29.13 28.34 27.52 26.40 26.17 26.74 25.71 24.58 23.04 20.27 18.33 17.15 16.82 15.42 14.78 13.48 10.58 11.70 8.30 7.66 8.91 11.31 13.61 15.14 14.12 15.93 17.69 17.29 18.69 19.41 20.48
27.69 26.51 25.26 24.30 30.71 30.30 29.57 28.13 30.35 32.06 30.07 29.29 28.91 27.25 26.74 26.60 26.53 25.15 23.80 23.43 21.32 18.76 17.11 15.31 13.69 12.39 10.66 8.48 7.53 6.15 3.43 3.81 1.90 6.70 9.93 10.56 12.41 12.53 14.52 14.23 14.26 19.55 21.33 22.94
MSLP
1015.05 1014.86 1014.71 1014.68 1014.76 1014.87 1014.80 1014.30 1014.00 1013.57 1013.56 1013.09 1012.68 1012.73 1012.51 1012.31 1012.15 1012.24 1012.30 1012.31 1012.57 1012.78 1013.00 1013.11 1013.38 1013.79 1014.27 1014.58 1015.11 1015.46 1015.71 1015.89 1016.11 1016.39 1016.83 1017.10 1017.32 1017.20 1017.24 1016.96 1017.04 1017.28 1017.39 1017.52
1014.89 1013.96 1013.88 1014.25 1014.62 1015.05 1015.19 1015.17 1015.09 1015.05 1014.40 1014.06 1013.46 1013.39 1012.82 1012.40 1012.30 1012.64 1012.88 1012.88 1012.86 1012.98 1013.14 1013.38 1013.75 1014.29 1014.92 1015.23 1015.54 1015.75 1015.78 1015.97 1016.22 1016.33 1016.47 1016.81 1017.03 1017.13 1017.29 1017.16 1017.04 1017.23 1017.48 1017.56
1013.93 1013.84 1013.60 1013.75 1014.24 1014.64 1015.06 1015.24 1015.59 1015.56 1015.22 1015.12 1014.85 1014.01 1013.44 1012.72 1012.44 1012.64 1012.98 1013.05 1013.27 1013.46 1013.79 1014.27 1014.67 1015.14 1015.61 1016.21 1016.45 1016.74 1016.51 1016.13 1016.35 1016.62 1016.71 1016.99 1017.15 1017.47 1017.51 1017.40 1017.41 1017.42 1017.59 1017.78
1014.03 1014.11 1013.86 1013.69 1013.85 1014.24 1014.88 1014.98 1015.70 1016.14 1015.94 1015.52 1015.14 1014.71 1013.00 1012.33 1012.49 1012.95 1013.14 1013.26 1013.69 1013.85 1014.58 1015.15 1015.62 1016.16 1016.69 1017.08 1016.99 1017.30 1017.08 1016.88 1016.87 1017.11 1017.32 1017.67 1017.89 1017.93 1017.76 1017.65 1017.68 1017.68 1017.73 1017.93
1014.14 1014.47 1014.44 1014.28 1013.97 1014.30 1014.98 1015.17 1015.88 1016.28 1016.51 1016.68 1016.16 1015.83 1013.99 1012.98 1013.20 1013.25 1013.20 1013.71 1014.42 1014.79 1015.40 1016.03 1016.41 1016.98 1017.34 1017.62 1017.72 1017.70 1017.64 1017.66 1017.71 1017.80 1017.88 1018.02 1018.25 1018.12 1017.80 1017.64 1017.59 1017.73 1017.76 1017.90
1014.27 1014.49 1014.56 1014.61 1014.57 1014.69 1015.38 1015.96 1016.61 1017.36 1017.89 1017.84 1016.86 1016.24 1014.24 1013.44 1012.94 1013.17 1013.78 1014.27 1014.87 1015.57 1016.03 1016.31 1016.80 1017.21 1017.82 1018.08 1018.21 1018.29 1018.03 1018.13 1018.30 1018.42 1018.36 1018.35 1018.34 1018.56 1018.49 1018.27 1018.13 1018.00 1017.87 1017.90
1014.64 1015.20 1015.26 1015.04 1015.36 1015.66 1015.72 1016.39 1017.56 1018.21 1018.62 1017.86 1016.72 1016.44 1014.62 1013.40 1012.94 1013.45 1014.23 1014.90 1015.47 1016.04 1016.46 1016.90 1017.36 1017.75 1018.20 1018.37 1018.49 1018.54 1018.43 1018.53 1018.52 1018.67 1018.70 1018.76 1018.86 1018.81 1018.97 1018.88 1018.66 1018.48 1018.37 1018.32
1014.35 1016.18 1015.73 1015.33 1015.05 1015.46 1016.04 1016.28 1017.16 1017.84 1018.64 1018.25 1017.37 1015.93 1014.39 1013.42 1013.12 1013.54 1014.35 1015.13 1015.87 1016.52 1016.98 1017.40 1017.64 1017.75 1017.83 1018.11 1018.42 1018.48 1018.67 1018.80 1018.77 1018.85 1018.82 1018.79 1018.95 1018.99 1019.00 1019.09 1019.03 1018.92 1018.69 1018.48
1013.84 1015.37 1015.83 1015.45 1015.17 1015.35 1016.48 1016.84 1017.19 1018.08 1018.94 1018.88 1017.78 1016.16 1014.87 1013.88 1013.98 1014.37 1014.91 1015.38 1015.97 1016.64 1017.09 1017.47 1017.70 1017.84 1017.89 1018.06 1018.28 1018.45 1018.73 1018.89 1018.81 1018.97 1018.92 1018.90 1019.04 1019.13 1019.14 1018.92 1018.92 1018.89 1018.82 1018.55
1013.54 1015.47 1015.93 1016.06 1015.76 1015.89 1015.98 1016.56 1017.71 1018.48 1019.31 1019.35 1017.86 1016.55 1015.01 1014.63 1014.60 1014.84 1015.37 1015.86 1016.14 1016.57 1017.09 1017.55 1017.77 1017.70 1017.76 1017.91 1018.28 1018.47 1018.66 1018.90 1018.92 1019.06 1019.03 1019.15 1019.24 1019.22 1019.21 1019.25 1019.07 1019.04 1018.97 1018.70
1013.51 1014.77 1016.64 1016.65 1016.35 1015.97 1016.44 1016.71 1017.50 1018.25 1018.96 1019.19 1018.69 1017.14 1015.57 1015.02 1014.71 1014.79 1015.43 1015.94 1016.26 1016.64 1017.05 1017.54 1017.57 1017.60 1017.67 1017.98 1018.25 1018.65 1018.84 1019.17 1019.35 1019.10 1019.06 1019.32 1019.44 1019.28 1019.21 1019.36 1019.17 1019.09 1018.96 1018.84
1014.62 1015.43 1016.76 1017.22 1017.14 1016.76 1016.42 1016.77 1017.58 1018.61 1019.80 1019.84 1019.35 1017.46 1016.06 1015.63 1015.22 1015.09 1015.82 1016.16 1016.48 1016.54 1016.88 1017.32 1017.38 1017.51 1017.87 1018.32 1018.59 1019.00 1019.20 1019.40 1019.56 1019.44 1019.50 1019.80 1019.88 1019.50 1019.39 1019.44 1019.32 1019.20 1019.01 1018.56
1015.28 1016.18 1017.11 1018.42 1018.24 1017.44 1017.19 1017.19 1017.69 1018.59 1019.49 1019.78 1019.40 1017.83 1016.42 1015.82 1015.85 1016.20 1016.36 1016.51 1016.60 1016.64 1016.79 1017.16 1017.47 1017.88 1018.28 1018.74 1019.03 1019.35 1019.56 1019.94 1020.03 1020.04 1019.99 1020.12 1020.15 1019.80 1019.63 1019.51 1019.34 1019.16 1018.99 1018.73
1015.81 1017.01 1017.26 1017.77 1017.75 1017.48 1017.80 1017.82 1018.07 1018.55 1019.40 1019.07 1018.23 1017.61 1016.74 1016.48 1016.37 1016.44 1016.51 1016.46 1016.54 1016.69 1017.16 1017.54 1017.96 1018.28 1018.87 1019.30 1019.52 1019.91 1020.27 1020.53 1020.65 1020.51 1020.44 1020.64 1020.48 1020.11 1019.93 1019.99 1019.85 1019.64 1019.29 1019.00
1017.35 1018.04 1018.46 1018.90 1018.86 1018.44 1018.27 1018.21 1018.21 1018.32 1018.68 1018.72 1018.10 1017.62 1016.92 1016.59 1016.56 1016.38 1016.32 1016.33 1016.63 1016.93 1017.35 1017.87 1018.57 1019.04 1019.43 1019.83 1020.30 1020.79 1021.14 1021.18 1021.06 1021.03 1020.95 1021.03 1020.92 1020.77 1020.61 1020.36 1020.01 1019.64 1019.31 1019.00
1018.20 1019.15 1019.67 1020.23 1020.07 1019.83 1019.49 1018.84 1018.44 1018.41 1018.39 1018.23 1018.06 1017.22 1016.80 1016.33 1016.16 1016.35 1016.16 1016.10 1016.36 1016.73 1017.26 1018.12 1018.85 1019.67 1020.30 1020.92 1021.44 1021.69 1021.83 1021.75 1021.60 1021.67 1021.70 1021.63 1021.54 1021.35 1021.08 1020.76 1020.36 1019.92 1019.46 1019.00
1019.04 1020.08 1021.02 1022.06 1021.57 1020.96 1020.15 1018.59 1018.08 1017.83 1017.62 1017.67 1017.55 1016.65 1015.99 1016.07 1015.93 1015.98 1016.12 1016.17 1016.74 1017.31 1018.16 1019.16 1019.96 1020.60 1021.20 1021.71 1022.01 1022.26 1022.24 1022.12 1022.12 1022.17 1022.21 1022.23 1022.16 1021.95 1021.53 1021.08 1020.65 1020.17 1019.61 1019.10
1019.77 1021.00 1022.07 1023.49 1023.28 1021.93 1019.36 1018.03 1017.44 1017.31 1017.09 1016.85 1016.47 1016.07 1015.78 1015.79 1016.17 1016.62 1016.73 1017.14 1017.86 1018.40 1019.33 1020.27 1021.03 1021.59 1021.99 1022.34 1022.61 1022.75 1022.73 1022.64 1022.64 1022.66 1022.84 1022.73 1022.48 1022.24 1021.81 1021.37 1020.85 1020.31 1019.82 1019.39
1020.77 1021.79 1023.56 1024.58 1024.09 1021.92 1019.37 1017.75 1017.33 1017.06 1016.87 1016.56 1016.55 1016.18 1015.80 1015.84 1016.36 1018.07 1018.23 1018.54 1019.08 1019.59 1020.37 1021.22 1021.83 1022.26 1022.62 1023.00 1023.28 1023.36 1023.36 1023.39 1023.30 1023.43 1023.41 1023.18 1022.88 1022.44 1022.00 1021.55 1021.03 1020.49 1019.91 1019.36
1022.29 1022.80 1023.92 1025.06 1024.68 1022.54 1019.34 1018.07 1017.04 1016.96 1017.47 1017.29 1016.89 1016.66 1016.58 1016.52 1017.66 1018.98 1019.36 1019.69 1020.20 1020.78 1021.45 1022.05 1022.45 1022.79 1023.15 1023.63 1023.96 1024.03 1024.04 1023.96 1024.07 1024.07 1023.91 1023.59 1023.20 1022.84 1022.51 1021.95 1021.32 1020.75 1020.22 1019.47
1023.86 1024.45 1025.05 1025.08 1024.21 1021.69 1019.14 1018.04 1017.48 1018.02 1018.40 1017.91 1017.74 1017.51 1017.51 1018.17 1019.00 1019.52 1020.10 1020.68 1021.14 1021.63 1022.10 1022.62 1023.02 1023.46 1023.98 1024.31 1024.51 1024.68 1024.74 1024.88 1024.93 1024.68 1024.37 1024.01 1023.56 1023.27 1022.72 1022.14 1021.65 1020.94 1020.12 1019.52
1023.59 1023.93 1024.34 1024.46 1023.67 1021.55 1018.78 1018.42 1018.41 1018.28 1018.23 1018.30 1018.38 1018.50 1018.75 1019.08 1019.62 1020.03 1020.58 1021.19 1021.64 1022.13 1022.71 1023.41 1024.00 1024.43 1024.60 1024.91 1025.14 1025.38 1025.53 1025.65 1025.47 1025.14 1024.73 1024.23 1023.77 1023.39 1022.80 1022.33 1021.72 1021.08 1020.32 1019.61
1022.91 1022.05 1022.50 1022.40 1021.02 1019.39 1018.51 1018.10 1018.00 1018.31 1018.44 1018.61 1018.83 1019.05 1019.19 1019.56 1020.00 1020.44 1020.99 1021.65 1022.28 1023.00 1023.69 1024.19 1024.65 1025.03 1025.04 1025.45 1025.86 1026.02 1026.05 1025.90 1025.69 1025.48 1024.98 1024.45 1023.87 1023.29 1022.76 1022.22 1021.74 1021.19 1020.50 1019.66
1021.85 1021.20 1021.29 1021.10 1019.42 1019.02 1018.64 1018.12 1017.94 1018.09 1018.50 1018.75 1019.02 1019.40 1019.80 1020.18 1020.54 1021.02 1021.61 1022.19 1022.83 1023.45 1024.06 1024.62 1024.93 1025.26 1025.61 1025.97 1026.18 1026.38 1026.37 1026.29 1026.22 1025.99 1025.44 1024.80 1024.21 1023.58 1023.07 1022.54 1021.88 1021.24 1020.40 1019.52
1021.27 1020.85 1020.64 1020.08 1019.26 1018.88 1018.36 1018.09 1018.10 1018.36 1018.73 1019.11 1019.48 1019.82 1020.20 1020.64 1021.10 1021.60 1022.22 1022.75 1023.38 1024.02 1024.59 1025.04 1025.47 1025.95 1026.37 1026.68 1026.78 1026.65 1026.55 1026.53 1026.63 1026.31 1025.64 1024.92 1024.35 1023.97 1023.26 1022.61 1022.05 1021.39 1020.80 1020.24
1020.28 1019.70 1019.82 1019.06 1018.35 1018.24 1018.16 1018.04 1018.06 1018.58 1019.01 1019.39 1019.96 1020.47 1020.82 1021.19 1021.69 1022.26 1022.97 1023.42 1023.99 1024.57 1025.12 1025.80 1026.32 1026.60 1026.62 1026.65 1026.72 1026.68 1026.73 1026.83 1026.99 1026.58 1025.95 1025.39 1024.72 1024.07 1023.45 1022.73 1021.82 1021.47 1020.79 1020.04
Wind_Speed
10 7 11 10 13 4 3 5 5 9 6 4 2 4 8 8 6 1 3 1 4 6 6 3 3 6 5 3 0 2 3 4 2 2 2 2 3 3 3 3 3 2 2 2
4 12 11 9 13 9 6 5 2 2 4 4 4 5 6 4 4 3 5 4 4 2 2 2 1 5 5 4 4 3 2 2 3 2 2 3 1 1 1 2 2 1 3 3
6 2 6 9 9 10 9 9 6 3 2 4 3 8 8 7 8 6 7 7 5 4 3 6 8 8 8 9 8 7 7 4 3 4 2 3 3 3 3 2 2 1 1 3
2 2 7 6 11 6 8 2 2 9 2 1 5 5 7 11 7 6 6 5 6 1 7 7 7 8 8 7 8 8 7 6 6 7 5 3 1 2 1 1 1 1 1 2
6 7 8 5 7 7 2 9 5 1 2 5 4 1 7 3 6 7 9 5 7 7 7 7 7 6 5 6 6 5 6 7 7 6 3 2 2 2 2 1 2 2 3 4
5 1 4 2 4 4 7 10 8 5 3 2 6 3 5 3 7 4 6 7 8 7 6 7 6 6 6 6 6 5 6 4 4 3 3 3 3 4 4 4 3 3 1 1
8 4 2 4 7 3 3 7 2 2 1 5 2 6 10 1 5 7 9 8 8 6 7 7 7 6 6 6 5 4 4 3 3 2 3 4 5 5 5 5 3 5 3 3
8 4 7 4 4 8 9 6 5 6 5 3 5 5 5 1 8 10 8 7 7 8 6 7 6 6 6 6 4 4 4 3 2 1 2 2 3 2 3 4 4 4 3 3
6 4 3 7 2 9 6 5 3 5 2 3 5 4 4 5 6 8 5 7 8 8 8 7 7 5 5 4 3 3 3 2 2 2 2 3 3 3 3 4 3 3 4 4
3 6 4 3 2 5 3 6 4 3 4 3 3 3 4 5 5 8 7 6 7 8 8 6 5 4 3 4 3 4 3 3 2 3 3 3 4 4 5 5 5 6 6 5
5 5 4 5 4 7 3 4 1 4 2 3 1 4 4 4 5 9 9 8 8 8 8 6 4 3 2 2 3 3 4 4 5 4 4 5 5 5 5 5 5 5 4 6
3 5 5 4 3 4 5 6 4 4 3 2 3 5 3 5 7 10 9 7 6 6 6 4 1 2 1 4 5 6 6 6 6 6 6 7 6 6 5 6 6 6 6 5
2 3 6 4 4 2 2 4 3 5 3 5 6 4 3 6 7 7 7 5 2 2 1 2 2 4 5 5 5 6 7 7 7 6 6 5 6 6 6 6 7 7 7 6
6 4 2 3 4 2 5 7 7 4 4 3 5 1 3 4 4 3 2 3 3 3 3 4 3 4 6 6 7 7 7 7 7 7 7 7 7 7 7 7 7 7 6 7
4 4 4 8 4 5 4 5 8 10 6 4 2 6 4 3 4 6 4 5 5 5 5 2 4 5 7 8 7 6 6 6 6 7 7 7 7 7 7 7 8 8 7 8
3 3 2 3 5 4 1 4 5 4 5 6 6 13 7 11 9 7 10 9 8 3 4 6 8 8 7 7 6 6 6 6 6 6 6 6 7 7 7 7 8 8 8 8
2 4 2 2 4 2 5 7 10 6 6 7 8 11 10 8 8 7 8 7 5 5 8 8 7 6 6 6 6 6 6 6 6 6 6 6 6 7 7 7 7 8 8 7
6 4 2 2 3 1 6 2 2 9 9 10 12 12 11 10 4 6 6 4 7 9 8 8 6 5 5 5 6 6 6 6 7 6 6 6 7 8 8 8 9 8 7 7
5 3 3 5 3 5 6 4 5 6 7 5 8 10 10 5 6 6 6 9 8 8 7 6 4 3 4 6 6 6 6 6 6 6 8 9 9 10 10 10 10 9 9 10
3 5 5 2 4 7 3 3 5 5 5 4 7 6 5 4 3 2 5 6 8 7 5 4 3 3 5 6 6 6 6 6 7 8 9 9 9 10 10 10 11 9 9 11
3 2 5 3 2 8 6 2 4 7 6 2 3 4 3 4 2 5 6 4 3 3 3 3 5 5 6 6 6 6 6 6 7 8 9 9 8 9 9 9 9 9 10 10
6 6 3 2 2 9 6 3 6 2 2 4 4 3 6 6 6 5 5 5 4 2 3 5 6 5 5 6 5 5 5 6 6 8 8 9 8 7 7 8 7 8 7 8
3 7 6 9 8 3 3 3 1 3 4 4 5 4 5 5 5 5 5 6 4 2 3 3 3 4 4 5 3 4 4 6 7 7 7 7 8 7 7 7 9 7 6 7
4 3 2 3 7 9 8 8 5 3 4 4 3 5 3 3 4 4 3 2 2 2 1 1 2 3 3 3 2 2 4 5 6 7 8 8 8 9 8 6 6 5 6 7
5 5 6 6 8 9 9 8 7 6 6 5 4 5 3 2 3 2 1 2 2 2 2 2 1 2 2 2 2 2 4 5 6 6 7 6 6 7 8 6 6 7 6 9
7 8 6 7 7 6 1 3 1 6 7 7 7 4 3 4 5 3 4 3 4 4 3 1 0 1 3 2 3 3 2 2 4 6 5 6 6 6 6 7 7 11 17 19
Wind_Direction
204 186 191 218 190 231 278 354 354 62 35 39 236 233 163 151 125 175 300 43 151 176 213 217 109 110 121 113 133 281 283 276 203 174 183 245 238 244 242 226 234 356 11 349
152 212 193 91 140 149 159 169 294 331 23 356 310 256 261 277 147 207 264 256 235 241 294 237 39 44 49 50 26 331 226 285 281 218 184 173 148 269 347 341 86 129 265 263
184 163 189 168 216 163 168 198 199 294 141 207 331 274 246 240 211 202 220 227 264 290 349 17 25 28 31 41 28 9 357 356 358 338 31 39 36 14 360 304 241 254 42 10
229 155 153 173 180 182 180 197 121 173 200 188 133 292 270 230 160 180 235 239 238 114 58 55 42 38 33 24 24 359 352 16 41 33 32 9 223 236 230 106 92 49 159 254
150 155 156 156 173 175 118 100 172 243 23 2 204 173 254 260 162 191 214 113 87 74 64 54 48 34 26 42 20 0 32 35 39 32 36 21 328 292 297 303 260 252 252 216
95 346 102 141 85 118 139 108 96 76 34 266 232 211 253 228 206 129 97 95 86 73 72 70 77 68 52 46 41 33 29 67 50 14 340 326 318 318 329 329 330 299 271 204
120 93 70 145 94 100 160 142 95 70 141 220 144 213 245 277 65 113 141 123 118 104 89 91 79 73 60 52 50 58 44 53 66 15 359 7 353 347 330 327 340 351 346 343
150 155 192 175 160 164 186 184 158 171 181 207 350 241 257 38 56 97 98 102 110 119 118 100 99 97 91 80 68 53 56 34 44 355 334 348 333 330 336 336 338 330 326 320
145 87 145 148 78 137 185 213 15 98 44 68 194 267 319 230 128 113 160 150 161 142 130 110 81 83 88 86 75 61 37 11 357 320 333 328 314 309 286 293 296 292 292 287
97 117 140 55 80 69 135 134 81 345 131 205 242 254 222 202 207 165 144 170 150 145 126 127 104 87 65 70 56 39 27 2 343 349 334 312 307 310 305 307 303 300 297 300
112 114 136 136 241 152 131 157 155 133 112 165 160 233 314 61 269 164 170 171 152 147 150 148 136 82 86 107 90 53 39 27 7 0 348 342 325 315 314 301 295 285 288 296
13 102 121 117 8 355 219 160 143 125 243 239 137 268 24 36 29 102 88 65 66 89 107 134 16 227 194 82 49 42 36 42 24 6 4 350 338 335 330 324 319 314 307 308
154 116 107 89 2 22 217 207 197 125 83 202 146 256 5 62 61 50 71 66 77 138 300 281 320 38 102 79 56 46 42 33 20 10 6 356 352 356 348 341 338 334 319 306
40 68 65 114 102 140 170 192 205 194 143 178 211 77 93 108 125 128 142 210 270 334 0 331 351 71 71 80 63 40 39 29 12 2 5 1 357 356 353 341 332 324 317 306
76 90 91 102 69 32 59 175 207 216 229 197 78 230 266 324 293 274 242 222 202 200 225 151 95 72 70 59 45 27 30 19 1 358 3 355 354 349 343 340 336 331 328 320
357 121 92 59 120 103 134 270 266 272 259 279 275 268 267 269 270 266 264 271 279 302 54 90 75 68 64 59 38 26 12 3 357 356 342 354 354 343 334 330 323 319 313 311
106 124 94 122 352 70 340 218 208 209 207 201 227 240 252 262 253 239 251 245 193 118 91 80 75 69 56 38 27 14 357 340 358 346 360 358 345 331 326 320 317 310 305 303
115 90 63 170 27 44 236 298 241 228 236 237 247 258 263 263 281 70 46 72 81 89 86 73 56 41 40 38 20 357 349 350 352 360 2 349 340 330 325 323 317 310 307 302
40 83 65 123 194 285 323 228 170 171 264 248 257 260 265 293 131 55 49 60 78 83 81 85 65 47 23 33 6 351 343 354 351 14 352 346 338 330 327 323 319 315 313 311
49 22 104 52 134 207 254 347 344 95 291 6 16 28 21 112 168 149 83 85 84 82 81 73 33 42 39 22 10 353 352 353 17 356 344 337 331 330 322 319 322 320 314 310
77 33 150 183 207 287 262 247 345 100 235 34 47 46 31 104 166 143 117 86 93 100 84 39 24 36 37 29 13 359 354 22 353 343 334 327 328 319 313 319 318 314 316 316
156 137 182 88 83 286 186 33 179 170 68 122 90 81 93 117 135 144 150 164 172 150 47 42 20 13 23 39 15 354 3 355 348 341 326 324 318 317 319 317 312 314 314 321
227 180 182 182 209 224 216 224 155 156 167 190 170 178 159 166 184 190 206 198 195 134 73 58 30 343 33 51 27 336 352 353 345 333 325 319 314 311 320 319 319 319 323 328
241 251 218 85 256 239 244 263 257 190 212 188 145 162 176 211 208 241 249 115 96 97 54 79 27 4 354 38 10 346 349 0 351 332 323 319 321 329 322 316 314 313 315 323
204 134 195 259 278 301 274 230 223 211 175 168 168 181 214 203 274 227 156 191 189 167 143 115 136 260 285 338 317 350 15 11 342 320 312 315 321 313 311 309 314 321 315 317
180 193 183 224 212 186 194 130 89 182 203 197 183 201 207 191 219 187 219 192 184 176 136 139 146 249 258 290 326 345 351 359 317 316 315 314 311 306 311 316 316 323 326 327